Regional Weather Roundup
Issued by NWS

Home | Current Version | Previous Version | Text Only | Print | Product List | Glossary Off
Versions: 1 2 3 4 5 6 7 8 9 10 11 12 13 14 15 16 17 18 19 20 21 22 23 24 25 26 27 28 29 30 31 32 33 34 35 36 37 38 39 40 41 42 43 44 45 46 47 48 49 50

000
ASUS45 KBOU 160410
RWRCO

WEATHER ROUNDUP FOR COLORADO
NATIONAL WEATHER SERVICE DENVER/BOULDER CO
900 PM MST FRI DEC 15 2017

NOTE: "FAIR" INDICATES FEW OR NO CLOUDS BELOW 12000 FEET WITH NO
SIGNIFICANT WEATHER AND/OR OBSTRUCTIONS TO VISIBILITY.

COZ001>005-013-030-031-160500-
...NORTHWEST COLORADO...

CITY           SKY/WX    TMP DP  RH WIND       PRES   REMARKS
CRAIG          FAIR      14   7  73 CALM      30.04F
HAYDEN         FAIR      24  13  62 E14       30.05F WCI  12
MEEKER         FAIR      20   7  57 NE3       30.04F
RABBIT EARS PA FAIR      27   0  31 SW5       30.08F WCI  21
STEAMBOAT SPGS FAIR      21  12  67 CALM      30.05F
WALDEN         FAIR      27   5  39 S15       30.00F WCI  15
$$

COZ006>008-011-160500-
...WEST CENTRAL VALLEYS...

CITY           SKY/WX    TMP DP  RH WIND       PRES   REMARKS
GRAND JUNCTION FAIR      30   9  41 E6        30.09F WCI  24
MONTROSE       FAIR      21   8  57 S3        30.11F
EAGLE          FAIR      17   9  70 E3        30.12F
RIFLE          FAIR      21   6  52 E3        30.11F
DELTA          FAIR      31   4  31 CALM      30.11S
NUCLA          FAIR      32  -8  18 E13       30.13F WCI  22
$$

COZ017>023-064>068-160500-
...SOUTHWEST COLORADO...

CITY           SKY/WX    TMP DP  RH WIND       PRES   REMARKS
DURANGO        FAIR      23  13  65 CALM      30.12F
CORTEZ         FAIR      19   2  47 E6        30.12F WCI  11
PAGOSA SPRINGS FAIR      23   9  56 CALM      30.13F
TELLURIDE      FAIR      31  -3  23 SE7       30.14F WCI  24
WOLF CREEK PAS FAIR      32   0  25 NW5       30.25F WCI  27
$$

COZ009-010-012-014-032>034-037-058>063-160500-
...CENTRAL COLORADO...

CITY           SKY/WX    TMP DP  RH WIND       PRES   REMARKS
ASPEN          FAIR      20   8  60 S6        30.07F WCI  12
BUENA VISTA    FAIR      25   8  48 CALM      30.05F
COPPER MTN     NOT AVBL
BERTHOUD PASS  FAIR      27  14  59 NW23G40   30.12R WCI  12
COTTONWOOD PAS FAIR      41   1  19 NW8G20    30.07F
GUNNISON       FAIR      17   4  56 CALM      30.14F
KREMMLING      FAIR      14   9  79 CALM      30.10F
LEADVILLE      FAIR      17   2  51 NE7       30.09F WCI   8
MONARCH PASS   FAIR      21  -4  33 W35       30.24F WCI   2
SALIDA         FAIR      31   6  33 CALM      30.10F
SUNLIGHT       FAIR      27  -4  26 SW15      30.16F WCI  15
WILKERSON PASS FAIR      32   1  27 NW14G22   30.12S WCI  22
$$

COZ069>075-160500-
...SAN LUIS VALLEY/SANGRE DE CRISTO MOUNTAINS...

CITY           SKY/WX    TMP DP  RH WIND       PRES   REMARKS
ALAMOSA        FAIR       9   5  84 S6        30.13S WCI  -1
DEL NORTE      FAIR      21   9  60 W5        30.13F WCI  14
LA VETA PASS   FAIR      27  -2  28 SW29G35     N/A  WCI  11
SAGUACHE       FAIR      18   9  68 NE7       30.14F WCI   8
$$

COZ035-036-038>040-160500-
...NORTHERN COLORADO FRONT RANGE...

CITY           SKY/WX    TMP DP  RH WIND       PRES   REMARKS
DENVER INTL AP FAIR      42  13  30 SW9       29.84F
DMNS CITY PARK NOT AVBL
AURORA         MOCLDY    39  13  35 S10       29.86F
FRONT RANGE AP FAIR      47  15  27 SW14      29.86S
ERIE MUNI ARPT FAIR      33  12  42 SW3       29.89F
BOULDER MUN AP FAIR      52   9  17 SW6       29.83F
CENTENNIAL     MOCLDY    45  14  28 SW10      29.86F
BROOMFIELD     PTCLDY    52   5  15 CALM      29.86F
FORT COLLINS   FAIR      36  22  56 VRB6      29.83F
LONGMONT       FAIR      33  20  57 NW6       29.85F WCI  28
$$

COZ041-046-047-076>085-087-088-160500-
...PIKES PEAK/PALMER DIVIDE AND SOUTHERN FOOTHILLS...

CITY           SKY/WX    TMP DP  RH WIND       PRES   REMARKS
COLO. SPRINGS  FAIR      38  10  31 NW7       29.91R
A. F. ACADEMY  FAIR      32   9  38 NE6       29.90F WCI  26
SCHRIEVER AFB  FAIR      38   8  28 N9        29.90S
CHEYENNE MTN   FAIR      45  11  25 CALM      29.87S
ELLICOTT         N/A    N/A N/A N/A CALM      29.88F
FALCON         FAIR      34   8  34 N7        29.92F WCI  27
FORT CARSON    FAIR      38  14  37 N7        29.88S
LIMON          FAIR      21  11  65 N7        29.88R WCI  12
MONUMENT HILL  FAIR      37  10  32 SW12      29.93F
CANON CITY     FAIR      46  12  25 W16       29.90F
WALSENBURG     FAIR      48   3  15 W23G29    29.92F
TRINIDAD       FAIR      38  12  34 W12       29.92F
$$

COZ042>045-048>051-090-091-160500-
...NORTHEAST COLORADO...

CITY           SKY/WX    TMP DP  RH WIND       PRES   REMARKS
GREELEY ARPT   FAIR      29  15  56 CALM      29.83F
AKRON          FAIR      43  11  27 SW15      29.81F
BURLINGTON     FAIR      38  15  39 SW12      29.83F
WRAY           FAIR      37   9  30 W8        29.81S
YUMA           FAIR      32  10  40 W9        29.80F WCI  24
STERLING       FAIR      32  12  43 CALM      29.80F
HOLYOKE        FAIR      32  14  47 W10       29.80F WCI  24
FORT MORGAN    FAIR      35  17  49 W10       29.82F WCI  27
$$

COZ086-089-092>099-160500-
...SOUTHEAST COLORADO...

CITY           SKY/WX    TMP DP  RH WIND       PRES   REMARKS
PUEBLO         FAIR      31  13  47 CALM      29.86F
LA JUNTA       FAIR      37  13  37 W8        29.85F
LAMAR          FAIR      28  16  60 W8        29.83F WCI  20
SPRINGFIELD      N/A     30  15  53 SW12      29.88F WCI  20
$$



USA.gov is the U.S. government's official web portal to all federal, state and local government web resources and services.